{"data":{"norad_id":66980,"epoch":"2026-09-20T17:35:02.932512Z","epoch_age_seconds":61156,"freshness":"FRESH","line1":"1 66980U 25288X   26263.73267283  .00017337  00000+0  63784-3 0  9992","line2":"2 66980  43.0041   2.2170 0001637 269.4626  90.6038 15.27590160 45110","mean_motion":15.2759016,"eccentricity":0.0001637,"inclination_deg":43.0041,"raan_deg":2.217,"arg_perigee_deg":269.4626,"mean_anomaly_deg":90.6038,"bstar":0.00063784,"rev_number":4511,"period_min":94.266121745639,"perigee_km":481.89550232948,"apogee_km":484.14184469698,"semimajor_km":6861.1556735132,"source":"CELESTRAK","updated_at":"2026-09-21T09:00:36.066418Z"}}